When you browse on this site, cookies collect data to enhance your experience and personalize the content and advertising you see.
Visit our Privacy Policy to learn more. By continuing to use the site, you agree to this use of cookies and data.
  • In United Kingdom
  • List of Countries
  • For 7 days
  • Water Temperature
  • Weather Map
  • Weather Widgets
  • user-avatar
    Login

    Hourly Weather Jambol

    Today, 19 January, Sunday

    Time Temperature Precipitation Wind Pressure Humidity
    00:00 +3°C° 0 mm 2 mps 757 mmHg 76%
    01:00 +3°C° 0 mm 2 mps 757 mmHg 76%
    02:00 +3°C° 0 mm 2 mps 757 mmHg 75%
    03:00 +3°C° 0 mm 2 mps 757 mmHg 74%
    04:00 +3°C° 0 mm 2 mps 757 mmHg 74%
    05:00 +3°C° 0 mm 2 mps 756 mmHg 74%
    06:00 +3°C° 0 mm 2 mps 757 mmHg 73%
    07:00 +3°C° 0 mm 2 mps 757 mmHg 72%
    08:00 +2°C° 0 mm 3 mps 757 mmHg 71%
    09:00 +2°C° 0 mm 3 mps 757 mmHg 69%
    10:00 +3°C° 0 mm 3 mps 757 mmHg 66%
    11:00 +3°C° 0 mm 3 mps 757 mmHg 63%
    12:00 +3°C° 0 mm 3 mps 757 mmHg 62%
    13:00 +3°C° 0 mm 3 mps 757 mmHg 62%
    14:00 +4°C° 0 mm 3 mps 757 mmHg 61%
    15:00 +3°C° 0 mm 3 mps 757 mmHg 63%
    16:00 +3°C° 0 mm 3 mps 758 mmHg 65%
    17:00 +3°C° 0 mm 3 mps 758 mmHg 67%
    18:00 +1°C° 0 mm 4 mps 759 mmHg 71%
    19:00 +1°C° 0 mm 4 mps 759 mmHg 74%
    20:00 0°C° 0 mm 4 mps 760 mmHg 77%
    21:00 0°C° 0 mm 4 mps 760 mmHg 77%
    22:00 0°C° 0 mm 3 mps 761 mmHg 77%
    23:00 0°C° 0 mm 3 mps 761 mmHg 77%

    Tomorrow, 20 January, Monday

    Time Temperature Precipitation Wind Pressure Humidity
    00:00 0°C° 0 mm 3 mps 762 mmHg 77%
    01:00 0°C° 0 mm 3 mps 762 mmHg 78%
    02:00 -1°C° 0 mm 3 mps 763 mmHg 78%
    03:00 -1°C° 0 mm 3 mps 763 mmHg 78%
    04:00 -1°C° 0 mm 3 mps 763 mmHg 79%
    05:00 -1°C° 0 mm 3 mps 763 mmHg 79%
    06:00 -1°C° 0 mm 3 mps 764 mmHg 79%
    07:00 -2°C° 0 mm 3 mps 765 mmHg 79%
    08:00 -2°C° 0 mm 3 mps 765 mmHg 79%
    09:00 -1°C° 0 mm 3 mps 766 mmHg 72%
    10:00 0°C° 0 mm 4 mps 766 mmHg 66%
    11:00 +1°C° 0 mm 5 mps 766 mmHg 59%
    12:00 +1°C° 0 mm 5 mps 766 mmHg 57%
    13:00 +2°C° 0 mm 5 mps 767 mmHg 56%
    14:00 +2°C° 0 mm 5 mps 767 mmHg 54%
    15:00 +1°C° 0 mm 4 mps 767 mmHg 58%
    16:00 +1°C° 0 mm 3 mps 767 mmHg 62%
    17:00 +1°C° 0 mm 3 mps 767 mmHg 66%
    18:00 +1°C° 0 mm 2 mps 768 mmHg 69%
    19:00 -1°C° 0 mm 2 mps 768 mmHg 72%
    20:00 +1°C° 0 mm 1 mps 768 mmHg 75%
    21:00 +1°C° 0 mm 1 mps 769 mmHg 75%
    22:00 -1°C° 0 mm 2 mps 769 mmHg 75%
    23:00 -1°C° 0 mm 2 mps 769 mmHg 76%

    Day after tomorrow, 21 January, Tuesday

    Time Temperature Precipitation Wind Pressure Humidity
    00:00 -2°C° 0 mm 2 mps 769 mmHg 76%
    01:00 -2°C° 0 mm 2 mps 769 mmHg 77%
    02:00 -2°C° 0 mm 2 mps 769 mmHg 77%
    03:00 -2°C° 0 mm 2 mps 769 mmHg 78%
    04:00 -2°C° 0 mm 2 mps 769 mmHg 78%
    05:00 0°C° 0 mm 1 mps 769 mmHg 79%
    06:00 0°C° 0 mm 1 mps 769 mmHg 79%
    07:00 0°C° 0 mm 1 mps 768 mmHg 79%
    08:00 0°C° 0 mm 1 mps 768 mmHg 79%
    09:00 +2°C° 0 mm 1 mps 768 mmHg 71%
    10:00 +3°C° 0 mm 1 mps 768 mmHg 63%
    11:00 +5°C° 0 mm 1 mps 768 mmHg 55%
    12:00 +6°C° 0 mm 1 mps 768 mmHg 52%
    13:00 +7°C° 0 mm 1 mps 767 mmHg 49%
    14:00 +8°C° 0 mm 1 mps 767 mmHg 46%
    15:00 +7°C° 0 mm 1 mps 766 mmHg 50%
    16:00 +6°C° 0 mm 1 mps 766 mmHg 54%
    17:00 +3°C° 0 mm 0 mps 765 mmHg 59%
    18:00 +3°C° 0 mm 0 mps 766 mmHg 60%
    19:00 +2°C° 0 mm 0 mps 766 mmHg 62%
    20:00 +2°C° 0 mm 0 mps 766 mmHg 64%
    21:00 +1°C° 0 mm 0 mps 765 mmHg 64%
    22:00 +1°C° 0 mm 0 mps 765 mmHg 65%
    23:00 +1°C° 0 mm 0 mps 765 mmHg 65%

    22 January, Wednesday

    Time Temperature Precipitation Wind Pressure Humidity
    00:00 +1°C° 0 mm 0 mps 764 mmHg 65%
    01:00 +1°C° 0 mm 0 mps 764 mmHg 65%
    02:00 +1°C° 0 mm 1 mps 764 mmHg 65%
    03:00 +1°C° 0 mm 1 mps 763 mmHg 65%
    04:00 +1°C° 0 mm 1 mps 763 mmHg 65%
    05:00 +1°C° 0 mm 1 mps 762 mmHg 65%
    06:00 +1°C° 0 mm 1 mps 762 mmHg 65%
    07:00 +1°C° 0 mm 1 mps 762 mmHg 65%
    08:00 +1°C° 0 mm 1 mps 762 mmHg 64%
    09:00 +3°C° 0 mm 1 mps 762 mmHg 58%
    10:00 +5°C° 0 mm 1 mps 761 mmHg 51%
    11:00 +5°C° 0 mm 2 mps 761 mmHg 44%
    12:00 +6°C° 0 mm 2 mps 760 mmHg 43%
    13:00 +7°C° 0 mm 2 mps 759 mmHg 41%
    14:00 +8°C° 0 mm 2 mps 759 mmHg 40%
    15:00 +7°C° 0 mm 2 mps 758 mmHg 44%
    16:00 +6°C° 0 mm 2 mps 757 mmHg 48%
    17:00 +5°C° 0 mm 2 mps 757 mmHg 53%
    18:00 +4°C° 0 mm 2 mps 757 mmHg 54%
    19:00 +3°C° 0 mm 2 mps 756 mmHg 54%
    20:00 +3°C° 0 mm 2 mps 756 mmHg 55%
    21:00 +2°C° 0 mm 2 mps 756 mmHg 56%
    22:00 +2°C° 0 mm 2 mps 755 mmHg 56%
    23:00 +2°C° 0 mm 2 mps 755 mmHg 57%

    23 January, Thursday

    Time Temperature Precipitation Wind Pressure Humidity
    00:00 +2°C° 0 mm 2 mps 755 mmHg 58%
    01:00 +1°C° 0 mm 2 mps 755 mmHg 59%
    02:00 +1°C° 0 mm 2 mps 754 mmHg 60%
    03:00 +2°C° 0 mm 1 mps 754 mmHg 60%
    04:00 +2°C° 0 mm 1 mps 755 mmHg 60%
    05:00 +2°C° 0 mm 1 mps 755 mmHg 59%
    06:00 +2°C° 0 mm 1 mps 755 mmHg 60%
    07:00 -1°C° 0 mm 2 mps 756 mmHg 61%
    08:00 -1°C° 0 mm 3 mps 757 mmHg 61%
    09:00 +1°C° 0 mm 3 mps 758 mmHg 59%
    10:00 +2°C° 0 mm 3 mps 758 mmHg 56%
    11:00 +4°C° 0 mm 3 mps 759 mmHg 54%
    12:00 +4°C° 0 mm 3 mps 759 mmHg 51%
    13:00 +5°C° 0 mm 3 mps 760 mmHg 49%
    14:00 +6°C° 0 mm 4 mps 760 mmHg 46%
    15:00 +5°C° 0 mm 3 mps 760 mmHg 49%
    16:00 +4°C° 0 mm 3 mps 760 mmHg 51%
    17:00 +4°C° 0 mm 2 mps 761 mmHg 53%
    18:00 +3°C° 0 mm 2 mps 761 mmHg 57%
    19:00 +2°C° 0 mm 2 mps 761 mmHg 60%
    20:00 +1°C° 0 mm 2 mps 762 mmHg 63%
    21:00 +2°C° 0 mm 1 mps 762 mmHg 65%
    22:00 +2°C° 0 mm 1 mps 763 mmHg 66%
    23:00 +1°C° 0 mm 1 mps 764 mmHg 68%

    24 January, Friday

    Time Temperature Precipitation Wind Pressure Humidity
    00:00 0°C° 0 mm 0 mps 764 mmHg 68%
    01:00 0°C° 0 mm 0 mps 763 mmHg 69%
    02:00 0°C° 0 mm 0 mps 763 mmHg 70%
    03:00 0°C° 0 mm 0 mps 763 mmHg 71%
    04:00 -1°C° 0 mm 0 mps 763 mmHg 71%
    05:00 -1°C° 0 mm 0 mps 763 mmHg 72%
    06:00 -1°C° 0 mm 0 mps 763 mmHg 73%
    07:00 -1°C° 0 mm 0 mps 763 mmHg 73%
    08:00 -1°C° 0 mm 0 mps 763 mmHg 74%
    09:00 +2°C° 0 mm 1 mps 763 mmHg 66%
    10:00 +2°C° 0 mm 2 mps 763 mmHg 57%
    11:00 +4°C° 0 mm 2 mps 763 mmHg 49%
    12:00 +4°C° 0 mm 3 mps 762 mmHg 46%
    13:00 +5°C° 0 mm 3 mps 762 mmHg 44%
    14:00 +7°C° 0 mm 3 mps 761 mmHg 41%
    15:00 +5°C° 0 mm 3 mps 761 mmHg 45%
    16:00 +4°C° 0 mm 2 mps 760 mmHg 50%
    17:00 +3°C° 0 mm 2 mps 760 mmHg 54%
    18:00 +3°C° 0 mm 2 mps 760 mmHg 57%
    19:00 +2°C° 0 mm 2 mps 760 mmHg 60%
    20:00 +2°C° 0 mm 1 mps 759 mmHg 63%
    21:00 +2°C° 0 mm 1 mps 759 mmHg 64%
    22:00 +2°C° 0 mm 1 mps 759 mmHg 66%
    23:00 +1°C° 0 mm 1 mps 759 mmHg 67%
    Show more